Flag for Germany Weather past 2 weeks in Steinfurt, North Rhine-Westphalia, Germany

Now
66 °F

Mild.


Feels Like: 66 °F
Forecast: 46 / 60 °F
Wind: 6 mph from Southwest

Location: Rheine-Bentlage

Current Time: May 22, 2015 at 3:36:44 PM

Latest Report: May 22, 2015 at 2:20 PM


Visibility: N/A

Pressure: 30.24 "Hg

Humidity: 46%

Dew point: 45 °F

Location of SteinfurtLocation

Historic Weather in Steinfurt — Graph

°F

Steinfurt temperature yesterday

Maximum temperature yesterday: 63 °F (at 3:20 PM)
Minimum temperature yesterday: 39 °F (at 4:20 AM)
Average temperature yesterday: 52 °F

Past Weeks' High & Low Weather Summary

 TemperatureHumidityPressure
High77 °F (May 11, 4:20 PM)100% (May 8, 12:20 AM)30.33 "Hg (May 8, 12:20 AM)
Low37 °F (May 16, 3:20 AM)36% (May 11, 4:20 PM)29.59 "Hg (May 18, 7:20 PM)
Average54 °F70%30.05 "Hg
* Reported May 7 2:20 PM — May 22 2:20 PM, Steinfurt, Weather by CustomWeather, © 2015

Note: Actual official high and low records may vary slightly from our data, if they occured in-between our weather recording intervals... More about our weather records

Advertising

Steinfurt weather history for previous 24 hours

 ConditionsComfort  
Time TempWeatherWind HumidityBarometerVisibility
2:20 PM
Fri, May 22
66 °FMild.6 mph46%30.24 "HgN/A
1:20 PM64 °FMild.7 mph49%30.27 "HgN/A
12:20 PM64 °FScattered clouds.7 mph52%30.27 "HgN/A
11:20 AM63 °FScattered clouds.7 mph52%30.27 "HgN/A
10:20 AM61 °FScattered clouds.7 mph52%30.30 "HgN/A
9:20 AM57 °FScattered clouds.6 mph67%30.30 "HgN/A
8:20 AM52 °FBroken clouds.3 mph82%30.30 "HgN/A
7:20 AM48 °FPartly sunny.2 mph94%30.30 "HgN/A
6:20 AM43 °FPassing clouds.2 mph100%30.30 "HgN/A
5:20 AM43 °FFog.No wind93%30.30 "HgN/A
4:20 AM43 °FQuite cool.No wind100%30.30 "HgN/A
3:20 AM43 °FQuite cool.No wind100%30.33 "HgN/A
2:20 AM45 °FQuite cool.No wind93%30.33 "HgN/A
1:20 AM46 °FCool.No wind87%30.33 "HgN/A
12:20 AM48 °FCool.5 mph82%30.33 "HgN/A
12:00 AM48 °FPassing clouds.3 mph87%30.33 "HgN/A
11:20 PM
Thu, May 21
50 °FPartly cloudy.3 mph82%30.33 "HgN/A
10:20 PM52 °FBroken clouds.3 mph77%30.30 "HgN/A
9:20 PM57 °FPartly sunny.5 mph63%30.30 "HgN/A
8:20 PM57 °FPartly sunny.3 mph63%30.27 "HgN/A
7:20 PM59 °FPartly sunny.3 mph59%30.27 "HgN/A
6:20 PM59 °FBroken clouds.7 mph55%30.27 "HgN/A
5:20 PM61 °FPartly sunny.7 mph45%30.24 "HgN/A
4:20 PM61 °FScattered clouds.9 mph45%30.24 "HgN/A
3:20 PM63 °FScattered clouds.7 mph42%30.24 "HgN/A
Weather by CustomWeather, © 2015

See weather overviewHow to use our weather pages